Youngstown, OH

4:23 AM EST on January 20, 2018 (GMT -0500)
Youngstown-Warren Regional

Weather History for KYNG - February, 2013

Change the Weather History Date:

Thursday, February 21, 2013

  Actual Average Record
Temperature  
Mean Temperature 17 °F 30 °F  
Max Temperature 21 °F 38 °F 71 °F (1997)
Min Temperature 13 °F 22 °F -9 °F (1968)
Degree Days  
Heating Degree Days 48 35  
Month to date heating degree days 848 784  
Since 1 July heating degree days 4208 4407  
Cooling Degree Days 0 0  
Month to date cooling degree days 0 0  
Year to date cooling degree days 0 0  
Moisture  
Dew Point 12 °F    
Average Humidity 76    
Maximum Humidity 84    
Minimum Humidity 67    
Precipitation  
Precipitation 0.05 in 0.08 in 0.97 in (1951)
Month to date precipitation 1.33 1.57  
Year to date precipitation 3.14 4.12  
Snow  
Snow 1.10 in 0.50 in - ()
Month to date snowfall 18.9 9.5  
Since 1 July snowfall 59.0 45.5  
Snow Depth 2.00 in    
Sea Level Pressure  
Sea Level Pressure 30.28 in    
Wind  
Wind Speed 8 mph (NW)    
Max Wind Speed 14 mph    
Max Gust Speed 18 mph    
Visibility 6 miles    
Events Snow    
T = Trace of Precipitation, MM = Missing Value Source: NWS Daily Summary

Daily Weather History Graph

Daily Weather History Graph

Search for Another Location

Airport or City:

Trip Planner

Search our weather history database for the weather conditions in past years. The results will help you decide how hot, cold, wet, or windy it might be!

Date:

Astronomy

Feb. 21, 2013 Rise Set
Actual Time 7:08 AM EST 6:04 PM EST
Civil Twilight 6:40 AM EST 6:32 PM EST
Nautical Twilight 6:08 AM EST 7:04 PM EST
Astronomical Twilight 5:36 AM EST 7:36 PM EST
Moon 2:16 PM EST (2/21) 4:13 AM EST (2/21)
Length of Visible Light 11h 51m
Length of Day
10h 55m
Waxing Gibbous, 83% of the Moon is Illuminated
Feb 21
Waxing Gibbous
Feb 25
Full
Mar 4
Last Quarter
Mar 11
New
Mar 19
First Quarter

Hourly Weather History & Observations

Time (EST) Temp. Windchill Dew Point Humidity Pressure Visibility Wind Dir Wind Speed Gust Speed Precip Events Conditions
12:51 AM 18.0 °F 6.9 °F 14.0 °F 84% 30.20 in 4.0 mi West 9.2 mph - N/A Snow Light Snow
1:37 AM 17.6 °F 8.2 °F 14.0 °F 86% 30.14 in 2.0 mi West 6.9 mph - 0.00 in Snow Light Snow
1:41 AM 17.6 °F 8.2 °F 14.0 °F 86% 30.14 in 3.0 mi West 6.9 mph - 0.00 in Snow Light Snow
1:51 AM 18.0 °F 7.7 °F 14.0 °F 84% 30.20 in 4.0 mi West 8.1 mph - 0.00 in Snow Light Snow
2:26 AM 17.6 °F 6.4 °F 14.0 °F 86% 30.14 in 5.0 mi WSW 9.2 mph - 0.00 in Snow Light Snow
2:51 AM 18.0 °F 5.4 °F 14.0 °F 84% 30.21 in 3.0 mi West 11.5 mph - 0.00 in Snow Light Snow
3:51 AM 18.0 °F 11.1 °F 14.0 °F 84% 30.21 in 5.0 mi West 4.6 mph - N/A Snow Light Snow
4:51 AM 18.0 °F 7.7 °F 10.9 °F 74% 30.22 in 9.0 mi WNW 8.1 mph - 0.00 in Snow Light Snow
5:30 AM 17.6 °F 8.2 °F 10.4 °F 73% 30.18 in 6.0 mi WNW 6.9 mph - 0.00 in Snow Light Snow
5:51 AM 18.0 °F 11.1 °F 12.0 °F 78% 30.25 in 2.5 mi WNW 4.6 mph - 0.00 in Snow Light Snow
6:51 AM 18.0 °F 6.9 °F 12.9 °F 81% 30.27 in 2.5 mi NW 9.2 mph - N/A Snow Light Snow
7:51 AM 17.1 °F 3.6 °F 12.9 °F 84% 30.29 in 2.0 mi NNW 12.7 mph - 0.00 in Snow Light Snow
8:19 AM 17.6 °F 5.7 °F 10.4 °F 73% 30.25 in 0.8 mi NW 10.4 mph - 0.00 in Snow Light Snow
8:34 AM 17.6 °F 5.7 °F 10.4 °F 73% 30.26 in 2.0 mi NW 10.4 mph - 0.00 in Snow Light Snow
8:51 AM 17.1 °F 4.3 °F 10.0 °F 74% 30.35 in 2.5 mi West 11.5 mph - 0.00 in Snow Light Snow
9:51 AM 18.0 °F 6.1 °F 10.0 °F 71% 30.34 in 2.5 mi NW 10.4 mph - N/A Snow Light Snow
10:51 AM 18.0 °F 5.4 °F 10.0 °F 71% 30.33 in 2.5 mi NW 11.5 mph - 0.00 in Snow Light Snow
11:19 AM 19.4 °F 8.6 °F 10.4 °F 68% 30.27 in 2.5 mi NW 9.2 mph - 0.00 in Snow Light Snow
11:51 AM 19.0 °F 8.2 °F 10.9 °F 71% 30.36 in 2.5 mi WNW 9.2 mph - 0.00 in Snow Light Snow
12:16 PM 19.4 °F 7.9 °F 10.4 °F 68% 30.29 in 2.5 mi NNW 10.4 mph - 0.00 in Snow Light Snow
12:51 PM 19.9 °F 9.3 °F 10.9 °F 68% 30.34 in 7.0 mi NW 9.2 mph - N/A Snow Light Snow
1:51 PM 19.9 °F 12.1 °F 10.9 °F 68% 30.34 in 9.0 mi NW 5.8 mph - 0.00 in Snow Light Snow
2:51 PM 21.0 °F 11.4 °F 12.0 °F 68% 30.34 in 9.0 mi NW 8.1 mph - 0.00 in Snow Light Snow
3:51 PM 21.0 °F 11.4 °F 12.0 °F 68% 30.32 in 9.0 mi North 8.1 mph - 0.00 in Snow Light Snow
4:51 PM 21.0 °F 10.6 °F 12.0 °F 68% 30.32 in 10.0 mi NE 9.2 mph - 0.00 in   Mostly Cloudy
5:51 PM 19.9 °F 14.9 °F 12.0 °F 71% 30.38 in 10.0 mi NNW 3.5 mph - N/A   Overcast
6:51 PM 18.0 °F 11.1 °F 10.9 °F 74% 30.38 in 10.0 mi NNE 4.6 mph - N/A   Mostly Cloudy
7:51 PM 17.1 °F 10.0 °F 10.0 °F 74% 30.38 in 10.0 mi NE 4.6 mph - N/A   Scattered Clouds
8:51 PM 14.0 °F 6.5 °F 9.0 °F 80% 30.37 in 10.0 mi ENE 4.6 mph - N/A   Mostly Cloudy
9:51 PM 17.1 °F 5.8 °F 10.9 °F 77% 30.33 in 10.0 mi ENE 9.2 mph - N/A   Mostly Cloudy
10:51 PM 17.1 °F 10.0 °F 10.9 °F 77% 30.33 in 10.0 mi East 4.6 mph - N/A   Overcast
11:51 PM 17.1 °F 6.6 °F 10.9 °F 77% 30.29 in 10.0 mi East 8.1 mph - N/A   Overcast